Regional Weather Roundup
Issued by NWS

Home | Current Version | Previous Version | Graphics & Text | Print | Product List | Glossary On
Versions: 1 2 3 4 5 6 7 8 9 10 11 12 13 14 15 16 17 18 19 20 21 22 23 24 25 26 27 28 29 30 31 32 33 34 35 36 37 38 39 40 41 42 43 44 45 46 47 48 49 50
000
ASUS43 KTOP 210159
RWRKS

WEATHER ROUNDUP FOR KANSAS
NATIONAL WEATHER SERVICE GOODLAND KS
800 PM CST SAT JAN 20 2018

NOTE:  "FAIR" INDICATES FEW OR NO CLOUDS BELOW 12,000 FEET WITH NO
SIGNIFICANT WEATHER AND/OR OBSTRUCTIONS TO VISIBILITY.

KSZ001>006-013>018-027>032-041>047-210300-
NORTHWEST KANSAS

CITY           SKY/WX    TMP DP  RH WIND       PRES   REMARKS
GOODLAND       CLOUDY    32  25  75 NE7       29.77R
HAYS           CLOUDY    36  26  67 N9        29.76F
HILL CITY      CLOUDY    31  24  75 NE3       29.78F
RUSSELL        CLOUDY    47  37  68 CALM      29.75R
$$

KSZ061>065-074>080-084>089-210300-
SOUTHWEST KANSAS

CITY           SKY/WX    TMP DP  RH WIND       PRES   REMARKS
DODGE CITY     CLOUDY    38  21  50 NE10      29.73R WCI  31
GARDEN CITY    CLOUDY    39  21  48 NE13      29.72R WCI  31
GREAT BEND     CLOUDY    41  34  76 SE7       29.75S
LIBERAL        CLOUDY    46  19  34 SE8       29.68S
$$

KSZ066>073-081>083-090>101-210300-
SOUTHEAST KANSAS

CITY           SKY/WX    TMP DP  RH WIND       PRES   REMARKS
CHANUTE        CLEAR     53  46  77 S13       29.83R
COFFEYVILLE    CLEAR     56  49  77 S14       29.83S
HUTCHINSON     CLEAR     39  36  89 CALM      29.76R
MEDICINE LODGE   N/A     74  39  28 SE9       29.73S
NEWTON         CLEAR     48  40  73 SE8       29.78S
PARSONS        CLEAR     56  49  77 S10       29.83S
WICHITA INTL   PTCLDY    46  39  76 SE6       29.75F
WICHITA JABRA  CLEAR     49  42  77 SE5       29.76F
WICHITA MCCONL CLEAR     50  40  68 S7        29.76S
WINFIELD       CLEAR     52  41  66 SE7       29.78F
$$

KSZ007>012-019>026-033>040-048>060-102>105-210300-
NORTHEAST KANSAS

CITY           SKY/WX    TMP DP  RH WIND       PRES   REMARKS
CONCORDIA      CLOUDY    38  38 100 E6        29.79S FOG
EMPORIA        CLEAR     42  39  89 E3        29.79S
LAWRENCE       CLEAR     42  40  92 E6        29.84R
MANHATTAN      CLEAR     41  39  93 N3        29.80S
OLATHE IND     CLEAR     45  43  93 E7        29.84F
OLATHE EXE     CLEAR     44  43  96 E5        29.84F
SALINA         CLEAR     44  39  82 SE6       29.77F
TOPEKA BILLARD CLEAR     41  41 100 E3        29.83R FOG
TOPEKA FORBES  CLEAR     41  40  96 E5        29.82R
$$




USA.gov is the U.S. government's official web portal to all federal, state and local government web resources and services.